Regional Weather Roundup
Issued by NWS

Home | Current Version | Previous Version | Graphics & Text | Print | Product List | Glossary On
Versions: 1 2 3 4 5 6 7 8 9 10 11 12 13 14 15 16 17 18 19 20 21 22 23 24 25 26 27
000
ASUS45 KBOU 241307
RWRCO

WEATHER ROUNDUP FOR COLORADO
NATIONAL WEATHER SERVICE DENVER/BOULDER CO
700 AM MDT WED MAY 24 2017

NOTE: "FAIR" INDICATES FEW OR NO CLOUDS BELOW 12000 FEET WITH NO
SIGNIFICANT WEATHER AND/OR OBSTRUCTIONS TO VISIBILITY.

COZ001>005-013-030-031-241400-
...NORTHWEST COLORADO...

CITY           SKY/WX    TMP DP  RH WIND       PRES   REMARKS
CRAIG          FAIR      39  34  82 CALM      30.01F
HAYDEN         FAIR      41  28  60 E10       30.03S
MEEKER         FAIR      41  34  76 E5        30.04F
RABBIT EARS PA FAIR      34  32  93 W13G21    30.16F WCI  25
STEAMBOAT SPGS FAIR      33  31  92 CALM      30.04F
WALDEN           N/A     37  30  75 SE6       30.05F
$$

COZ006>008-011-241400-
...WEST CENTRAL VALLEYS...

CITY           SKY/WX    TMP DP  RH WIND       PRES   REMARKS
GRAND JUNCTION FAIR      52  34  50 E5        29.99R
MONTROSE       FAIR      47  33  58 S10       30.06S
EAGLE          SUNNY     36  28  75 CALM      30.11S
RIFLE          FAIR      42  31  64 SE3       30.05S
DELTA          FAIR      50  31  48 NE5       30.04R
NUCLA          FAIR      46  32  57 E7        30.09S
$$

COZ017>023-064>068-241400-
...SOUTHWEST COLORADO...

CITY           SKY/WX    TMP DP  RH WIND       PRES   REMARKS
DURANGO        FAIR      42  25  50 E5        30.08S
CORTEZ         FAIR      42  34  73 E7        30.06S
PAGOSA SPRINGS FAIR      38  25  59 CALM      30.13R
TELLURIDE      FAIR      42  32  67 SE5       30.22S
WOLF CREEK PAS FAIR      37  23  56 W12       30.33F
$$

COZ009-010-012-014-032>034-037-058>063-241400-
...CENTRAL COLORADO...

CITY           SKY/WX    TMP DP  RH WIND       PRES   REMARKS
ASPEN          FAIR      37  30  75 CALM      30.09F
BUENA VISTA    FAIR      42  28  59 CALM      30.05F
COPPER MTN     FAIR      34  27  75 NW8       30.24S WCI  27
BERTHOUD PASS  FAIR      28  18  64 NW39G48   30.17F HAZE    WCI  11
COTTONWOOD PAS FAIR      46  28  49 NW10G20   30.12F
GUNNISON       FAIR      32  26  78 SE3       30.15R
KREMMLING      FAIR      36  32  87 CALM      30.11S
LEADVILLE      FAIR      37  25  61 SE3       30.14S
MONARCH PASS   FAIR      32  27  80 W38       30.33R WCI  16
SALIDA         FAIR      43  25  47 NW6       30.11F
SUNLIGHT       FAIR      34  27  75 SW10G18   30.25R WCI  26
WILKERSON PASS FAIR      36  25  64 NW13G22   30.19S
$$

COZ069>075-241400-
...SAN LUIS VALLEY/SANGRE DE CRISTO MOUNTAINS...

CITY           SKY/WX    TMP DP  RH WIND       PRES   REMARKS
ALAMOSA        FAIR      39  28  64 SW3       30.09S
DEL NORTE      FAIR      43  24  47 W3        30.11S
LA VETA PASS   FAIR      34  19  55 SW24G36   30.24F WCI  21
SAGUACHE       NOT AVBL
$$

COZ035-036-038>040-241400-
...NORTHERN COLORADO FRONT RANGE...

CITY           SKY/WX    TMP DP  RH WIND       PRES   REMARKS
DENVER INTL AP FAIR      46  37  71 S5        29.84F
DMNS CITY PARK   N/A     47  35  63 S7        29.84S
AURORA         MOSUNNY   49  33  53 S12       29.85F
FRONT RANGE AP MOSUNNY   46  39  76 S6        29.85F
ERIE MUNI ARPT FAIR      42  38  86 CALM      29.84F
BOULDER MUN AP FAIR      45  37  76 CALM      29.83F
CENTENNIAL     FAIR      50  35  56 SE7       29.86F
BROOMFIELD     MOSUNNY   45  37  76 CALM      29.84F
FORT COLLINS   FAIR      43  38  82 N3        29.85F
LONGMONT       FAIR      46  40  78 N3        29.85F
$$

COZ041-046-047-076>085-087-088-241400-
...PIKES PEAK/PALMER DIVIDE AND SOUTHERN FOOTHILLS...

CITY           SKY/WX    TMP DP  RH WIND       PRES   REMARKS
COLO. SPRINGS  FAIR      46  37  71 NE8       29.93F
A. F. ACADEMY  FAIR      40  34  80 N6        29.92F
SCHRIEVER AFB  FAIR      46  35  63 SW5       29.93F
CHEYENNE MTN   FAIR      53  28  39 S5        29.88F
ELLICOTT       FAIR     N/A N/A N/A CALM      29.91F
FALCON         FAIR      45  33  61 W5        29.94F
FORT CARSON    FAIR      44  33  64 NW6       29.90F
LIMON          FAIR      41  37  86 CALM      29.88F
MONUMENT HILL  FAIR      45  32  61 SW9       29.94F
CANON CITY     NOT AVBL
WALSENBURG     FAIR      54  32  43 SW15      29.93F
TRINIDAD       FAIR      48  33  56 W22       29.93F
$$

COZ042>045-048>051-090-091-241400-
...NORTHEAST COLORADO...

CITY           SKY/WX    TMP DP  RH WIND       PRES   REMARKS
GREELEY ARPT   FAIR      41  36  82 CALM      29.85F
AKRON          FAIR      45  34  65 S5        29.85F
BURLINGTON     FAIR      42  38  85 SW5       29.89S
WRAY           FAIR      39  37  93 CALM      29.87F
YUMA           FAIR      39  36  87 S5        29.86F
STERLING       FAIR      39  37  93 S5        29.84F
HOLYOKE        NOT AVBL
FORT MORGAN    FAIR      41  36  81 CALM      29.85F
$$

COZ086-089-092>099-241400-
...SOUTHEAST COLORADO...

CITY           SKY/WX    TMP DP  RH WIND       PRES   REMARKS
PUEBLO         FAIR      44  39  82 CALM      29.88F
LA JUNTA       FAIR      47  38  71 SW7       29.88F
LAMAR          FAIR      44  40  85 CALM      29.88F
SPRINGFIELD      N/A     49  39  68 VRB3      29.90F
$$




USA.gov is the U.S. government's official web portal to all federal, state and local government web resources and services.